Regional Weather Roundup
Issued by NWS

Home | Current Version | Previous Version | Graphics & Text | Print | Product List | Glossary On
Versions: 1 2 3 4 5 6 7 8 9 10 11 12 13 14 15 16 17 18 19 20 21 22 23 24 25 26 27 28 29 30 31 32 33 34 35 36 37 38 39 40 41 42 43 44 45 46 47 48 49 50
000
ASUS43 KBIS 210510
RWRND
NORTH DAKOTA REGIONAL WEATHER ROUNDUP
NATIONAL WEATHER SERVICE EASTERN NORTH DAKOTA/GRAND FORKS ND
1200 AM CDT SAT APR 21 2018

  NOTE: "FAIR" INDICATES FEW OR NO CLOUDS BELOW 12,000 FEET WITH NO
  SIGNIFICANT WEATHER AND/OR OBSTRUCTIONS TO VISIBILITY.

NDZ001>003-009>011-017-210600-
...NORTHWEST NORTH DAKOTA...

CITY           SKY/WX    TMP DP  RH WIND       PRES   REMARKS
WILLISTON      FAIR      49  36  61 S8        30.15R
MINOT          FAIR      44  32  62 VRB5      30.20F
MINOT AFB      FAIR      38  32  79 SE7       30.19F WCI  33
$$

NDZ018>021-031>035-040>046-210600-
...SOUTHWEST NORTH DAKOTA...

CITY           SKY/WX    TMP DP  RH WIND       PRES   REMARKS
BISMARCK       FAIR      38  33  82 SE3       30.29S
DICKINSON      FAIR      40  36  86 S10       30.19S WCI  33
GARRISON         N/A     42  33  70 S12       30.23S
HETTINGER      FAIR      40  35  83 SE13      30.23S WCI  32
$$

NDZ004>008-012>016-024-026-027-054-210600-
...NORTHEAST NORTH DAKOTA...

CITY           SKY/WX    TMP DP  RH WIND       PRES   REMARKS
GRAND FORKS    FAIR      39  35  86 S9        30.35S WCI  33
GRAND FORKS AF FAIR      39  33  80 S9        30.34F WCI  33
DEVILS LAKE    FAIR      35  30  82 SE5       30.31F WCI  31
$$

NDZ022-023-025-028>030-036>039-047>053-210600-
...SOUTHEAST NORTH DAKOTA...

CITY           SKY/WX    TMP DP  RH WIND       PRES   REMARKS
JAMESTOWN      FAIR      38  34  85 S8        30.31F WCI  32
FARGO          FAIR      42  33  70 S10       30.37F
WAHPETON       FAIR      36  32  87 SE8       30.39S WCI  29
$$




USA.gov is the U.S. government's official web portal to all federal, state and local government web resources and services.